QPF
0.01 0.04 0.07 0.07 0.08 0.13 0.17 0.19 0.21 0.18 0.14 0.13 0.11 0.08 0.04 0.03 0.02 0.01 0.01 0.01 0.01 0.01 0.01 0.01 0.01 0.01 0.01 0.01 0.02 0.02 0.02 0.03 0.03 0.03 0.04 0.04 0.05 0.05
0.00 0.01 0.03 0.05 0.06 0.09 0.14 0.17 0.20 0.22 0.18 0.14 0.14 0.13 0.08 0.04 0.02 0.01 0.01 0.01 0.01 0.00 0.00 0.00 0.01 0.01 0.01 0.01 0.01 0.01 0.02 0.03 0.03 0.03 0.03 0.03 0.03 0.04
0.00 0.00 0.01 0.03 0.05 0.07 0.12 0.16 0.17 0.21 0.20 0.20 0.21 0.21 0.15 0.07 0.04 0.02 0.01 0.01 0.00 0.00 0.00 0.00 0.00 0.01 0.01 0.01 0.01 0.01 0.01 0.02 0.01 0.02 0.02 0.03 0.03 0.03
0.01 0.01 0.01 0.01 0.03 0.05 0.09 0.13 0.15 0.19 0.22 0.26 0.29 0.25 0.19 0.12 0.07 0.04 0.01 0.00 0.00 0.00 0.00 0.00 0.00 0.00 0.01 0.01 0.01 0.01 0.01 0.01 0.01 0.01 0.01 0.02 0.03 0.03
0.00 0.01 0.01 0.01 0.02 0.03 0.05 0.09 0.12 0.16 0.21 0.28 0.36 0.34 0.27 0.18 0.10 0.06 0.03 0.01 0.00 0.00 0.01 0.01 0.00 0.00 0.00 0.01 0.01 0.01 0.01 0.01 0.01 0.01 0.01 0.01 0.02 0.02
0.00 0.00 0.00 0.01 0.01 0.02 0.03 0.06 0.10 0.14 0.20 0.29 0.37 0.42 0.36 0.24 0.14 0.08 0.04 0.02 0.01 0.00 0.01 0.01 0.01 0.01 0.01 0.01 0.01 0.01 0.01 0.01 0.01 0.01 0.01 0.02 0.02 0.02
0.01 0.01 0.00 0.01 0.01 0.02 0.02 0.03 0.08 0.12 0.16 0.24 0.34 0.45 0.45 0.29 0.16 0.10 0.06 0.03 0.01 0.01 0.00 0.01 0.00 0.00 0.00 0.01 0.01 0.01 0.01 0.01 0.01 0.01 0.01 0.01 0.01 0.01
0.01 0.01 0.01 0.01 0.01 0.02 0.02 0.02 0.04 0.09 0.14 0.19 0.26 0.35 0.44 0.36 0.20 0.12 0.08 0.05 0.02 0.01 0.00 0.01 0.00 0.00 0.00 0.00 0.01 0.01 0.00 0.00 0.00 0.00 0.00 0.00 0.00 0.00
0.02 0.02 0.01 0.01 0.01 0.01 0.02 0.02 0.03 0.05 0.11 0.17 0.22 0.27 0.37 0.42 0.31 0.17 0.09 0.06 0.03 0.01 0.00 0.01 0.01 0.00 0.00 0.01 0.01 0.01 0.00 0.00 0.00 0.00 0.00 0.00 0.00 0.00
0.02 0.02 0.01 0.02 0.02 0.03 0.02 0.02 0.02 0.03 0.05 0.11 0.19 0.25 0.32 0.44 0.42 0.30 0.17 0.08 0.05 0.03 0.01 0.00 0.01 0.00 0.00 0.00 0.01 0.01 0.00 0.00 0.00 0.00 0.00 0.00 0.00 0.00
0.03 0.02 0.02 0.02 0.02 0.03 0.03 0.03 0.02 0.03 0.04 0.07 0.16 0.28 0.34 0.39 0.49 0.44 0.28 0.13 0.06 0.04 0.02 0.00 0.00 0.00 0.00 0.00 0.00 0.00 0.00 0.00 0.00 0.00 0.00 0.00 0.00 0.00
0.03 0.03 0.03 0.03 0.03 0.03 0.04 0.04 0.03 0.03 0.04 0.05 0.11 0.22 0.33 0.36 0.40 0.42 0.33 0.19 0.09 0.05 0.02 0.01 0.00 0.00 0.00 0.00 0.00 0.00 0.00 0.00 0.00 0.00 0.00 0.00 0.00 0.00
0.03 0.04 0.04 0.04 0.04 0.04 0.04 0.04 0.03 0.04 0.06 0.05 0.08 0.16 0.27 0.35 0.36 0.36 0.32 0.22 0.12 0.06 0.03 0.01 0.00 0.00 0.00 0.00 0.00 0.00 0.00 0.00 0.00 0.00 0.00 0.00 0.00 0.00
0.05 0.07 0.06 0.06 0.06 0.06 0.05 0.05 0.04 0.05 0.07 0.08 0.08 0.13 0.19 0.26 0.31 0.34 0.32 0.23 0.15 0.09 0.06 0.04 0.02 0.00 0.00 0.00 0.00 0.00 0.00 0.00 0.00 0.00 0.00 0.00 0.00 0.00
0.05 0.07 0.07 0.07 0.06 0.05 0.04 0.05 0.04 0.04 0.06 0.07 0.08 0.09 0.13 0.18 0.27 0.35 0.39 0.32 0.20 0.10 0.06 0.04 0.03 0.01 0.00 0.00 0.00 0.00 0.00 0.00 0.00 0.00 0.00 0.00 0.00 0.00
0.03 0.04 0.06 0.08 0.07 0.05 0.04 0.04 0.03 0.03 0.04 0.06 0.07 0.09 0.13 0.18 0.24 0.33 0.41 0.37 0.25 0.12 0.04 0.02 0.01 0.01 0.01 0.00 0.00 0.00 0.00 0.00 0.00 0.00 0.00 0.00 0.00 0.00
0.03 0.05 0.06 0.07 0.06 0.05 0.03 0.02 0.02 0.02 0.02 0.04 0.07 0.09 0.12 0.14 0.20 0.27 0.35 0.36 0.25 0.12 0.05 0.02 0.01 0.01 0.01 0.00 0.00 0.00 0.00 0.00 0.00 0.00 0.00 0.00 0.00 0.00
0.02 0.04 0.06 0.06 0.06 0.05 0.04 0.02 0.02 0.01 0.01 0.02 0.06 0.08 0.11 0.12 0.16 0.22 0.26 0.29 0.26 0.15 0.08 0.03 0.01 0.01 0.00 0.00 0.00 0.00 0.00 0.00 0.00 0.00 0.00 0.00 0.00 0.00
0.01 0.03 0.04 0.03 0.04 0.04 0.04 0.02 0.02 0.02 0.01 0.02 0.03 0.07 0.09 0.11 0.13 0.18 0.20 0.21 0.22 0.18 0.11 0.06 0.02 0.01 0.00 0.00 0.00 0.00 0.00 0.00 0.00 0.00 0.00 0.00 0.00 0.00
0.01 0.01 0.02 0.02 0.03 0.03 0.03 0.02 0.02 0.02 0.02 0.02 0.03 0.06 0.09 0.10 0.11 0.15 0.17 0.17 0.17 0.16 0.14 0.08 0.03 0.01 0.01 0.00 0.00 0.00 0.00 0.00 0.00 0.00 0.00 0.00 0.00 0.00
0.01 0.01 0.02 0.03 0.03 0.03 0.03 0.02 0.02 0.03 0.03 0.02 0.02 0.04 0.07 0.10 0.11 0.11 0.14 0.15 0.15 0.13 0.11 0.08 0.04 0.03 0.02 0.01 0.00 0.00 0.00 0.00 0.00 0.00 0.00 0.00 0.00 0.00
0.03 0.02 0.03 0.04 0.04 0.03 0.03 0.03 0.03 0.03 0.03 0.02 0.02 0.03 0.05 0.08 0.10 0.11 0.11 0.12 0.11 0.10 0.09 0.09 0.09 0.07 0.03 0.02 0.01 0.00 0.00 0.00 0.00 0.00 0.00 0.00 0.00 0.00
0.03 0.04 0.04 0.04 0.04 0.04 0.03 0.03 0.02 0.02 0.03 0.02 0.02 0.02 0.03 0.05 0.08 0.10 0.11 0.09 0.09 0.10 0.10 0.11 0.12 0.10 0.05 0.02 0.01 0.00 0.00 0.00 0.00 0.00 0.00 0.00 0.00 0.00
MSLP
1010.93 1010.95 1010.96 1010.92 1010.81 1010.62 1010.35 1010.01 1009.65 1009.29 1008.98 1008.73 1008.57 1008.51 1008.53 1008.64 1008.81 1009.05 1009.33 1009.67 1010.05 1010.49 1010.97 1011.48 1012.00 1012.53 1013.04 1013.52 1013.96 1014.38 1014.77 1015.16 1015.55 1015.96 1016.38 1016.80 1017.20 1017.57
1010.41 1010.44 1010.45 1010.42 1010.34 1010.19 1009.97 1009.71 1009.44 1009.18 1008.96 1008.80 1008.71 1008.70 1008.75 1008.86 1009.01 1009.20 1009.42 1009.69 1010.00 1010.36 1010.76 1011.20 1011.66 1012.12 1012.58 1013.01 1013.42 1013.82 1014.21 1014.61 1015.02 1015.46 1015.92 1016.39 1016.83 1017.23
1009.83 1009.84 1009.85 1009.83 1009.77 1009.66 1009.51 1009.34 1009.17 1009.02 1008.92 1008.86 1008.87 1008.93 1009.03 1009.15 1009.30 1009.47 1009.66 1009.88 1010.13 1010.42 1010.75 1011.12 1011.50 1011.90 1012.29 1012.67 1013.04 1013.41 1013.79 1014.20 1014.63 1015.11 1015.61 1016.12 1016.61 1017.05
1009.22 1009.21 1009.21 1009.20 1009.16 1009.10 1009.01 1008.93 1008.85 1008.81 1008.82 1008.87 1008.96 1009.10 1009.26 1009.42 1009.60 1009.77 1009.95 1010.15 1010.37 1010.63 1010.91 1011.22 1011.55 1011.89 1012.22 1012.55 1012.88 1013.21 1013.58 1013.98 1014.43 1014.93 1015.46 1016.01 1016.54 1017.01
1008.61 1008.58 1008.57 1008.56 1008.54 1008.51 1008.48 1008.47 1008.48 1008.52 1008.61 1008.75 1008.93 1009.13 1009.35 1009.57 1009.78 1010.00 1010.21 1010.43 1010.67 1010.93 1011.21 1011.50 1011.80 1012.10 1012.39 1012.67 1012.96 1013.26 1013.59 1013.98 1014.43 1014.93 1015.48 1016.04 1016.59 1017.08
1008.00 1007.95 1007.93 1007.92 1007.92 1007.92 1007.93 1007.96 1008.02 1008.13 1008.28 1008.47 1008.70 1008.96 1009.23 1009.51 1009.79 1010.06 1010.34 1010.63 1010.93 1011.25 1011.57 1011.89 1012.20 1012.50 1012.77 1013.03 1013.28 1013.55 1013.85 1014.21 1014.63 1015.11 1015.65 1016.20 1016.74 1017.23
1007.36 1007.30 1007.28 1007.27 1007.27 1007.29 1007.33 1007.39 1007.48 1007.62 1007.79 1008.01 1008.27 1008.56 1008.88 1009.21 1009.56 1009.92 1010.29 1010.69 1011.09 1011.51 1011.92 1012.32 1012.69 1013.02 1013.31 1013.57 1013.81 1014.05 1014.31 1014.63 1015.01 1015.45 1015.95 1016.47 1016.98 1017.44
1006.67 1006.60 1006.57 1006.57 1006.59 1006.62 1006.67 1006.75 1006.86 1007.00 1007.18 1007.40 1007.67 1007.97 1008.31 1008.69 1009.11 1009.56 1010.05 1010.57 1011.11 1011.66 1012.20 1012.71 1013.17 1013.58 1013.92 1014.21 1014.46 1014.69 1014.93 1015.20 1015.53 1015.92 1016.36 1016.82 1017.28 1017.70
1005.91 1005.84 1005.81 1005.81 1005.85 1005.90 1005.97 1006.07 1006.18 1006.32 1006.49 1006.70 1006.95 1007.26 1007.61 1008.02 1008.50 1009.04 1009.63 1010.28 1010.96 1011.65 1012.34 1012.98 1013.57 1014.08 1014.51 1014.85 1015.13 1015.37 1015.61 1015.86 1016.14 1016.47 1016.85 1017.25 1017.65 1018.02
1005.09 1005.01 1004.99 1005.01 1005.07 1005.15 1005.25 1005.36 1005.48 1005.62 1005.79 1005.98 1006.22 1006.51 1006.86 1007.30 1007.81 1008.41 1009.09 1009.85 1010.65 1011.48 1012.31 1013.10 1013.81 1014.44 1014.97 1015.40 1015.74 1016.02 1016.26 1016.51 1016.77 1017.06 1017.38 1017.73 1018.08 1018.40
1004.24 1004.17 1004.16 1004.21 1004.29 1004.41 1004.54 1004.69 1004.83 1004.98 1005.15 1005.33 1005.56 1005.83 1006.18 1006.61 1007.14 1007.77 1008.51 1009.34 1010.24 1011.17 1012.11 1013.02 1013.85 1014.60 1015.24 1015.76 1016.18 1016.52 1016.81 1017.08 1017.34 1017.61 1017.91 1018.22 1018.53 1018.82
1003.44 1003.37 1003.38 1003.46 1003.58 1003.74 1003.92 1004.10 1004.28 1004.46 1004.63 1004.82 1005.03 1005.29 1005.62 1006.04 1006.56 1007.20 1007.95 1008.81 1009.76 1010.75 1011.77 1012.76 1013.69 1014.53 1015.27 1015.89 1016.40 1016.83 1017.18 1017.49 1017.78 1018.07 1018.37 1018.67 1018.96 1019.24
1002.75 1002.70 1002.74 1002.84 1003.00 1003.20 1003.42 1003.64 1003.87 1004.07 1004.27 1004.47 1004.68 1004.93 1005.24 1005.63 1006.12 1006.73 1007.47 1008.31 1009.26 1010.27 1011.31 1012.34 1013.33 1014.24 1015.06 1015.77 1016.37 1016.88 1017.32 1017.70 1018.04 1018.37 1018.69 1019.00 1019.31 1019.59
1002.26 1002.22 1002.27 1002.40 1002.58 1002.81 1003.07 1003.33 1003.59 1003.83 1004.05 1004.27 1004.48 1004.72 1005.01 1005.37 1005.82 1006.39 1007.08 1007.88 1008.78 1009.76 1010.78 1011.82 1012.82 1013.77 1014.65 1015.42 1016.10 1016.69 1017.21 1017.66 1018.07 1018.45 1018.82 1019.16 1019.48 1019.78
1001.98 1001.96 1002.02 1002.15 1002.35 1002.59 1002.86 1003.14 1003.42 1003.69 1003.93 1004.16 1004.38 1004.62 1004.89 1005.22 1005.64 1006.15 1006.77 1007.51 1008.34 1009.26 1010.24 1011.23 1012.22 1013.18 1014.07 1014.89 1015.62 1016.27 1016.86 1017.38 1017.86 1018.29 1018.70 1019.08 1019.44 1019.76
1001.92 1001.91 1001.97 1002.09 1002.27 1002.49 1002.76 1003.03 1003.32 1003.59 1003.84 1004.08 1004.32 1004.55 1004.82 1005.13 1005.51 1005.97 1006.53 1007.20 1007.96 1008.81 1009.71 1010.65 1011.59 1012.52 1013.40 1014.23 1014.99 1015.68 1016.31 1016.89 1017.41 1017.90 1018.35 1018.76 1019.14 1019.49
1002.01 1002.00 1002.04 1002.13 1002.27 1002.46 1002.69 1002.94 1003.20 1003.46 1003.72 1003.97 1004.21 1004.45 1004.72 1005.02 1005.38 1005.81 1006.33 1006.93 1007.63 1008.40 1009.23 1010.10 1010.98 1011.86 1012.71 1013.52 1014.28 1014.98 1015.63 1016.23 1016.79 1017.31 1017.79 1018.23 1018.63 1019.00
1002.17 1002.15 1002.15 1002.20 1002.28 1002.41 1002.58 1002.79 1003.01 1003.25 1003.50 1003.75 1004.00 1004.26 1004.53 1004.85 1005.21 1005.63 1006.12 1006.69 1007.34 1008.05 1008.82 1009.62 1010.44 1011.26 1012.06 1012.83 1013.56 1014.25 1014.90 1015.51 1016.07 1016.61 1017.10 1017.56 1017.98 1018.35
1002.28 1002.23 1002.20 1002.19 1002.21 1002.28 1002.38 1002.53 1002.72 1002.93 1003.16 1003.41 1003.67 1003.95 1004.25 1004.58 1004.96 1005.40 1005.89 1006.45 1007.07 1007.75 1008.47 1009.21 1009.98 1010.74 1011.48 1012.20 1012.90 1013.56 1014.19 1014.78 1015.35 1015.88 1016.39 1016.85 1017.29 1017.68
1002.25 1002.17 1002.10 1002.03 1002.00 1002.01 1002.06 1002.16 1002.31 1002.49 1002.71 1002.96 1003.23 1003.53 1003.87 1004.23 1004.64 1005.10 1005.62 1006.18 1006.80 1007.46 1008.16 1008.87 1009.59 1010.30 1011.00 1011.67 1012.32 1012.95 1013.55 1014.13 1014.68 1015.21 1015.72 1016.21 1016.66 1017.07
1002.04 1001.94 1001.82 1001.72 1001.65 1001.62 1001.63 1001.70 1001.82 1001.99 1002.19 1002.44 1002.73 1003.05 1003.41 1003.81 1004.26 1004.75 1005.29 1005.88 1006.51 1007.17 1007.86 1008.55 1009.25 1009.93 1010.58 1011.22 1011.84 1012.43 1013.00 1013.57 1014.11 1014.65 1015.17 1015.67 1016.15 1016.60
1001.66 1001.53 1001.39 1001.27 1001.19 1001.14 1001.14 1001.20 1001.30 1001.47 1001.67 1001.92 1002.22 1002.55 1002.93 1003.35 1003.82 1004.34 1004.91 1005.53 1006.18 1006.85 1007.54 1008.23 1008.91 1009.58 1010.22 1010.83 1011.42 1011.99 1012.55 1013.10 1013.65 1014.20 1014.73 1015.26 1015.77 1016.26
1001.15 1001.01 1000.87 1000.76 1000.68 1000.64 1000.66 1000.72 1000.84 1001.00 1001.21 1001.46 1001.75 1002.09 1002.47 1002.89 1003.37 1003.90 1004.49 1005.11 1005.78 1006.47 1007.17 1007.87 1008.55 1009.21 1009.85 1010.45 1011.03 1011.59 1012.15 1012.70 1013.25 1013.81 1014.37 1014.93 1015.48 1016.01
Thickness
5629 5632 5635 5639 5644 5648 5653 5657 5660 5665 5674 5686 5695 5703 5708 5712 5716 5719 5722 5723 5725 5726 5727 5727 5727 5726 5726 5725 5724 5722 5721 5720 5718 5716 5715 5713 5712 5711
5620 5623 5627 5631 5635 5640 5645 5650 5654 5659 5665 5677 5686 5694 5699 5704 5707 5711 5714 5717 5719 5722 5723 5725 5725 5725 5725 5724 5724 5722 5721 5719 5718 5716 5714 5712 5711 5709
5610 5613 5617 5621 5626 5631 5636 5641 5647 5652 5658 5668 5678 5685 5689 5693 5696 5701 5705 5708 5712 5716 5718 5721 5722 5723 5723 5723 5722 5721 5719 5718 5716 5714 5712 5710 5708 5707
5599 5602 5607 5612 5616 5621 5626 5632 5638 5645 5650 5657 5666 5673 5678 5683 5687 5691 5694 5699 5703 5707 5711 5715 5717 5719 5719 5719 5719 5718 5717 5715 5714 5712 5710 5708 5706 5704
5588 5591 5596 5599 5604 5610 5616 5622 5629 5637 5643 5649 5656 5664 5668 5672 5675 5679 5683 5689 5694 5698 5703 5707 5710 5712 5714 5714 5714 5714 5713 5712 5710 5708 5706 5704 5702 5701
5577 5580 5584 5588 5593 5599 5606 5612 5619 5626 5633 5641 5648 5653 5658 5663 5667 5669 5672 5678 5684 5689 5693 5697 5700 5703 5706 5707 5707 5708 5708 5707 5705 5703 5701 5699 5697 5696
5564 5568 5572 5577 5583 5588 5595 5602 5608 5615 5623 5631 5638 5644 5650 5654 5659 5663 5665 5668 5673 5679 5683 5687 5691 5694 5696 5698 5699 5700 5701 5701 5700 5697 5695 5693 5691 5690
5550 5554 5558 5564 5570 5577 5585 5592 5599 5606 5613 5621 5629 5636 5644 5650 5654 5657 5659 5662 5665 5669 5675 5676 5680 5683 5686 5689 5691 5693 5693 5694 5693 5691 5689 5687 5685 5684
5538 5540 5546 5553 5558 5563 5571 5580 5588 5597 5606 5613 5621 5630 5637 5644 5648 5650 5653 5657 5660 5664 5666 5666 5668 5671 5674 5678 5681 5684 5685 5685 5685 5684 5683 5681 5679 5677
5528 5529 5533 5538 5545 5550 5557 5566 5575 5585 5596 5606 5615 5623 5631 5638 5643 5648 5649 5648 5650 5653 5659 5657 5657 5659 5663 5667 5671 5674 5675 5676 5677 5676 5675 5674 5672 5670
5520 5521 5523 5528 5534 5539 5545 5554 5563 5572 5583 5594 5604 5613 5621 5629 5634 5636 5638 5641 5642 5645 5650 5652 5649 5649 5652 5655 5659 5663 5666 5667 5669 5669 5668 5666 5664 5663
5512 5513 5516 5519 5524 5529 5535 5543 5552 5562 5571 5581 5591 5602 5611 5619 5627 5634 5639 5641 5642 5642 5645 5646 5645 5645 5643 5644 5648 5652 5656 5658 5659 5660 5660 5659 5657 5656
5505 5505 5507 5511 5515 5521 5528 5536 5545 5553 5561 5571 5581 5592 5602 5611 5620 5628 5635 5640 5642 5644 5646 5646 5643 5642 5642 5637 5639 5643 5647 5649 5650 5651 5652 5651 5650 5650
5499 5499 5501 5504 5509 5513 5520 5528 5536 5544 5552 5562 5573 5584 5595 5604 5614 5622 5628 5634 5639 5642 5643 5645 5643 5642 5638 5633 5633 5634 5638 5641 5643 5644 5644 5644 5643 5642
5495 5496 5498 5500 5504 5508 5515 5522 5528 5536 5545 5554 5566 5577 5588 5598 5606 5613 5618 5623 5627 5631 5634 5639 5643 5640 5641 5639 5635 5633 5633 5634 5637 5639 5638 5638 5638 5637
5493 5494 5495 5497 5500 5505 5510 5516 5524 5532 5540 5549 5559 5569 5579 5589 5598 5606 5612 5616 5617 5619 5624 5630 5636 5638 5637 5638 5639 5635 5635 5635 5635 5634 5634 5633 5633 5632
5492 5491 5492 5493 5497 5501 5506 5512 5519 5526 5534 5543 5553 5563 5573 5583 5592 5599 5606 5611 5613 5615 5615 5620 5624 5629 5634 5635 5632 5633 5633 5632 5633 5631 5629 5627 5627 5628
5491 5492 5494 5496 5499 5502 5507 5512 5517 5524 5532 5540 5549 5559 5568 5577 5586 5594 5601 5606 5610 5611 5612 5615 5618 5619 5621 5623 5631 5631 5630 5629 5629 5627 5625 5623 5622 5623
5492 5494 5496 5499 5501 5505 5509 5513 5519 5525 5531 5538 5547 5555 5564 5573 5580 5588 5595 5601 5605 5607 5609 5612 5616 5619 5619 5620 5622 5628 5628 5626 5624 5622 5621 5620 5619 5620
5494 5496 5499 5502 5505 5508 5512 5516 5521 5526 5531 5538 5546 5553 5561 5569 5577 5584 5591 5597 5601 5602 5604 5607 5613 5618 5622 5623 5620 5620 5624 5625 5622 5619 5617 5616 5616 5616
5499 5501 5504 5507 5510 5514 5517 5521 5525 5529 5534 5539 5545 5552 5559 5566 5573 5580 5586 5591 5596 5598 5602 5606 5611 5613 5613 5614 5614 5614 5616 5620 5621 5619 5616 5611 5608 5606
5504 5507 5510 5513 5516 5519 5522 5525 5528 5532 5536 5541 5546 5552 5558 5564 5570 5576 5582 5588 5592 5596 5599 5600 5601 5604 5608 5611 5612 5612 5611 5611 5612 5614 5615 5615 5610 5605
5511 5514 5516 5518 5521 5524 5526 5529 5532 5535 5538 5542 5547 5552 5557 5562 5567 5573 5578 5583 5587 5590 5592 5593 5595 5598 5602 5606 5607 5606 5606 5605 5604 5604 5605 5607 5609 5610